FW7738 Weather Reports


time (UTC)temp
C
wind
direction
speed
KPH
gust
KPH
rain 1hr
cm
rain 24hr
cm
rain mn
cm
humidity
%
barometer
mb
20260503222032 17 56 0.0 1.6 0.00 0.00 0.00 87 1012.5
20260503221147 17 77 0.0 3.2 0.00 0.00 0.00 87 1012.6
20260503220022 17 74 1.6 3.2 0.00 0.00 0.00 87 1012.7
20260503215018 17 78 1.6 4.8 0.00 0.00 0.00 86 1012.8
20260503214033 17 96 1.6 6.4 0.00 0.00 0.00 86 1012.8
20260503213028 17 104 3.2 4.8 0.00 0.00 0.00 86 1012.9
20260503212024 17 140 4.8 9.7 0.00 0.00 0.00 86 1012.9
20260503211019 17 117 3.2 6.4 0.00 0.00 0.00 87 1012.8
20260503210035 17 118 3.2 6.4 0.00 0.00 0.00 87 1012.8
20260503205030 17 113 4.8 6.4 0.00 0.00 0.00 87 1012.6
20260503204026 17 110 1.6 4.8 0.00 0.00 0.00 87 1012.5
20260503203020 17 105 1.6 4.8 0.00 0.00 0.00 87 1012.2
20260503202036 17 80 1.6 3.2 0.00 0.00 0.00 87 1012.1
20260503201032 17 82 1.6 4.8 0.00 0.00 0.00 86 1011.9
20260503200027 17 87 3.2 6.4 0.00 0.00 0.00 86 1011.9
20260503195022 17 87 3.2 6.4 0.00 0.00 0.00 86 1011.7
20260503194018 17 95 1.6 4.8 0.00 0.00 0.00 85 1011.8
20260503193033 17 79 1.6 9.7 0.00 0.00 0.00 85 1011.7
20260503192029 17 73 3.2 9.7 0.00 0.00 0.00 84 1011.5
20260503191024 17 109 3.2 9.7 0.00 0.00 0.00 84 1011.7
20260503190019 17 87 3.2 9.7 0.00 0.00 0.00 84 1011.7
20260503185054 17 88 6.4 12.9 0.00 0.00 0.00 83 1011.5
20260503184030 17 96 4.8 11.3 0.00 0.00 0.00 82 1011.6
20260503183025 17 92 6.4 14.5 0.00 0.00 0.00 83 1011.5
20260503182021 18 92 8.0 16.1 0.00 0.00 0.00 81 1011.5
20260503181016 18 108 6.4 14.5 0.00 0.00 0.00 81 1011.4
20260503180031 18 89 8.0 16.1 0.00 0.00 0.00 81 1011.1
20260503175027 18 98 9.7 17.7 0.00 0.00 0.00 79 1011.3
20260503174022 18 93 6.4 16.1 0.00 0.00 0.00 80 1011.3
20260503173017 18 103 9.7 16.1 0.00 0.00 0.00 79 1011.3
20260503172033 18 89 4.8 14.5 0.00 0.00 0.00 79 1011.2
20260503171028 18 104 8.0 14.5 0.00 0.00 0.00 78 1011.5
20260503131016 19 90 4.8 12.9 0.00 0.00 0.00 74 1012.6
20260503081037 17 127 6.4 12.9 0.00 0.00 0.00 85 1014.4
20260503072032 17 60 1.6 4.8 0.00 0.00 0.00 91 1014.0
20260503071028 17 52 1.6 3.2 0.00 0.00 0.00 91 1013.8
20260503055030 16 44 0.0 3.2 0.00 0.00 0.00 91 1013.5
20260503054025 16 54 3.2 9.7 0.00 0.00 0.00 91 1013.6
20260503053020 17 45 1.6 6.4 0.00 0.00 0.00 91 1013.5
20260503052015 17 69 1.6 4.8 0.00 0.00 0.00 90 1013.6
20260503051031 17 74 1.6 4.8 0.00 0.00 0.00 90 1013.7
20260503050046 17 81 0.0 3.2 0.00 0.00 0.00 90 1013.6
20260503045022 17 47 1.6 3.2 0.00 0.00 0.00 90 1013.5
20260503044017 17 46 1.6 4.8 0.00 0.00 0.00 90 1013.4
20260503043033 17 59 1.6 3.2 0.00 0.00 0.00 90 1013.4
20260503042028 16 50 1.6 6.4 0.00 0.00 0.00 91 1013.5
20260503041043 16 43 3.2 6.4 0.00 0.00 0.00 91 1013.6
20260503040018 16 47 3.2 6.4 0.00 0.00 0.00 92 1013.5
20260503035034 16 20 4.8 11.3 0.00 0.00 0.00 92 1013.5
20260503034029 16 26 3.2 9.7 0.00 0.00 0.00 92 1013.5
20260503033024 16 26 3.2 9.7 0.00 0.00 0.00 92 1013.7
20260503032020 16 39 3.2 6.4 0.00 0.00 0.00 92 1013.6
20260503031015 17 45 3.2 9.7 0.00 0.00 0.00 92 1013.8
20260503030030 17 32 3.2 6.4 0.00 0.00 0.00 92 1013.9
20260503025046 17 46 3.2 6.4 0.00 0.00 0.00 92 1014.0
20260503024021 17 53 1.6 6.4 0.00 0.00 0.00 92 1014.2
20260503023017 17 52 1.6 4.8 0.00 0.00 0.00 92 1014.2
20260503022052 17 47 0.0 3.2 0.00 0.00 0.00 93 1014.3
20260503021028 17 57 1.6 6.4 0.00 0.00 0.00 93 1014.3
20260503020023 17 66 0.0 1.6 0.00 0.00 0.00 93 1014.3
20260503015018 17 89 3.2 6.4 0.00 0.00 0.00 92 1014.3
20260503014053 17 90 3.2 4.8 0.00 0.00 0.00 92 1014.5
20260503013029 17 70 1.6 3.2 0.00 0.00 0.00 91 1014.6
20260503012024 17 90 4.8 11.3 0.00 0.00 0.00 91 1014.7
20260503011019 17 47 1.6 6.4 0.00 0.00 0.00 91 1014.9
20260503010055 17 50 1.6 4.8 0.00 0.00 0.00 92 1014.9
20260503005030 17 59 1.6 3.2 0.00 0.00 0.00 92 1015.1
20260503004025 17 65 1.6 4.8 0.00 0.00 0.00 92 1015.0
20260503003020 17 62 1.6 6.4 0.00 0.00 0.00 92 1015.2
20260503002016 17 65 1.6 4.8 0.00 0.00 0.00 91 1015.4
20260503001032 17 85 3.2 6.4 0.00 0.00 0.00 91 1015.4
20260503000027 17 74 1.6 9.7 0.00 0.00 0.00 90 1015.6
20260502235042 17 70 1.6 6.4 0.00 0.00 0.00 90 1015.9
20260502234017 17 44 1.6 6.4 0.00 0.00 0.00 90 1015.9
20260502233033 17 34 1.6 3.2 0.00 0.00 0.00 90 1016.0
20260502232028 17 50 3.2 6.4 0.00 0.00 0.00 90 1015.8
20260502231023 17 57 0.0 3.2 0.00 0.00 0.00 90 1016.0
20260502230019 17 66 1.6 6.4 0.00 0.00 0.00 90 1015.9
20260502225034 17 86 1.6 4.8 0.00 0.00 0.00 90 1016.2
20260502224030 17 86 3.2 9.7 0.00 0.00 0.00 90 1016.1
20260502223025 17 81 1.6 6.4 0.00 0.00 0.00 90 1016.2